METEOR 1-16

Satellite information

Favourite Embed

Satellite Type and Status

PAYLOADIN ORBIT

Key statistics

Satellite METEOR 1-16 at a glance.

Uptime

18912

Days in orbit

Revolutions

≈ 14.1

Per day

Orbit

LEO

Low Earth Orbit

Inclination

81.2

Latest

Satellite identification and parameters

Extended collection of information and parameters for METEOR 1-16.

Object identification

Identified? True

Debris? False

Object name: METEOR 1-16

International designator: 1974-011A

Object number (NORAD): 7209

Object ID (CCSDS): 7209

Country: COMMONWEALTH OF INDEPENDENT STATES (CIS)

Current information (Y/N): Y

RCS size: LARGE

Orbital parameters

Period: 101.803 minutes

Inclination: 81.2265 deg

SMA: 7222.141 km

Apoapsis: 871.495 km

Periapsis: 816.517 km

RAAN: 213.4556 deg

Eccentricy: 0.00380621

Argument of periapsis: 214.145 deg

Mean anomaly: 145.7275 deg

Mean motion: 14.14502772 rev/day

Mean motion (dot): 0.00000135 rev/day2

B* drag term: 0.000063266084 1/REarth

Two-line elements (TLE)

Creation date: Dec. 12, 2025, 10:14 a.m.

Reference frame: TEME

Reference center: EARTH

Epoch: Dec. 12, 2025, 2:59 a.m. UTC

TLE line 0: 0 METEOR 1-16

TLE line 1: 1 07209U 74011A 25346.12445687 .00000135 00000-0 63266-4 0 9994

TLE line 2: 2 07209 81.2265 213.4556 0038062 214.1450 145.7275 14.14502772668796

Live tracking on map

Real-time ground track for satellite METEOR 1-16.

In-orbit conjunctions

A list of the most updated potential collisions computed for object METEOR 1-16.

Target Orbit TCA Probability of collision Miss distance Type
FENGYUN 1C DEB SSO 2025-11-25 06:27:53 0.0003997774 164.0 (m) DEBRIS
COSMOS 1275 DEB LEO 2025-10-16 08:05:12 0.001614188 99.0 (m) DEBRIS
SL-16 DEB LEO 2025-07-19 14:11:41 0.001087214 133.0 (m) DEBRIS
FENGYUN 1C DEB SSO 2024-11-30 06:43:32 0.0001276385 629.0 (m) DEBRIS
DMSP 5D-2 F12 DEB SSO 2024-11-19 05:53:06 0.003726895 61.0 (m) DEBRIS

Associated space launch

The Meteor-1 series was the first series of Soviet meteorological satellites.

METEOR 1-16 was lifted into orbit during the mission ‘Vostok 8A92M | Meteor-1 16 (30L)’, on board a Vostok 8A92M space rocket.

The launch took place on March 5, 1974, 11:38 a.m. from 43/4 (43R).

For more information about the launch, click the button.

Launch to space Vostok 8A92M | Meteor-1 16 (30L)
Vostok 8A92M | Meteor-1 16 (30L)

Agency: N/A

Status: Launch Successful

Launch date: March 5, 1974, 11:38 a.m. UTC

Rocket: Vostok 8A92M

Launch pad: 43/4 (43R)

Location: Plesetsk Cosmodrome, Russian Federation

...

Latest news about this satellite

There are no fresh news available about this satellite. Check back as we update our databases every day.


Newsletter sign-up

Weekly statistics, charts and insights to help you stay on top of the space industry.